STARLINK L

Last updated on June 19, 2020, 12:02 a.m. UTC

1 45740U 20038L   20170.66667824  .01805796  17556-2  33158-2 0  9992
2 45740  52.9998 272.2761 0099181  69.7963  17.6017 15.92315224  2120

Satellite is not in orbit.